TimeMST,TemperatureF,Dew PointF,Humidity,Sea Level PressureIn,VisibilityMPH,Wind Direction,Wind SpeedMPH,Gust SpeedMPH,PrecipitationIn,Events,Conditions,WindDirDegrees,DateUTC
12:53 AM,23.0,12.0,63,30.10,10.0,South,20.7,29.9,N/A,,Clear,170,2013-03-06 07:53:00
1:53 AM,21.9,12.0,66,30.09,10.0,Variable,4.6,-,N/A,,Clear,0,2013-03-06 08:53:00
2:53 AM,21.0,12.0,68,30.07,10.0,South,11.5,17.3,N/A,,Clear,170,2013-03-06 09:53:00
3:53 AM,21.0,12.9,71,30.06,10.0,SSE,15.0,-,N/A,,Clear,160,2013-03-06 10:53:00
4:53 AM,21.2,12.2,68,29.96,10.0,SE,5.8,-,N/A,,Clear,140,2013-03-06 11:53:00
5:53 AM,19.9,12.9,74,30.06,10.0,South,13.8,-,N/A,,Clear,170,2013-03-06 12:53:00
6:53 AM,19.9,12.9,74,30.06,10.0,SSE,11.5,-,N/A,,Clear,160,2013-03-06 13:53:00
7:53 AM,24.1,15.1,69,30.04,10.0,South,10.4,-,N/A,,Clear,170,2013-03-06 14:53:00
8:53 AM,30.0,17.1,59,30.01,10.0,SSE,10.4,-,N/A,,Clear,150,2013-03-06 15:53:00
9:53 AM,36.0,19.0,50,29.95,10.0,South,12.7,-,N/A,,Clear,170,2013-03-06 16:53:00
10:53 AM,41.0,19.0,41,29.92,10.0,SE,6.9,-,N/A,,Clear,130,2013-03-06 17:53:00
11:53 AM,46.9,21.0,36,29.87,10.0,South,9.2,-,N/A,,Clear,170,2013-03-06 18:53:00
12:53 PM,50.0,23.0,35,29.81,10.0,SE,12.7,-,N/A,,Clear,130,2013-03-06 19:53:00
1:53 PM,53.1,23.0,31,29.76,10.0,SSE,15.0,20.7,N/A,,Clear,150,2013-03-06 20:53:00
2:53 PM,54.0,23.0,30,29.75,10.0,SSE,16.1,-,N/A,,Clear,150,2013-03-06 21:53:00
3:53 PM,57.0,25.0,29,29.71,10.0,SSE,17.3,24.2,N/A,,Clear,150,2013-03-06 22:53:00
4:40 PM,55.4,24.8,31,29.69,10.0,SSW,16.1,-,N/A,,Clear,210,2013-03-06 23:40:00
4:53 PM,55.9,24.1,29,29.70,10.0,South,13.8,-,N/A,,Clear,190,2013-03-06 23:53:00
5:53 PM,50.0,24.1,36,29.71,10.0,SSW,17.3,-,N/A,,Clear,210,2013-03-07 00:53:00
6:53 PM,48.0,24.1,39,29.73,10.0,SSW,18.4,-,N/A,,Clear,200,2013-03-07 01:53:00
7:53 PM,44.1,25.0,47,29.71,10.0,South,20.7,-,N/A,,Clear,190,2013-03-07 02:53:00
8:53 PM,45.0,25.0,46,29.70,10.0,SSW,24.2,-,N/A,,Clear,210,2013-03-07 03:53:00
9:53 PM,46.9,25.0,42,29.70,10.0,SW,21.9,32.2,N/A,,Clear,230,2013-03-07 04:53:00
10:53 PM,46.0,25.0,44,29.70,10.0,SW,23.0,-,N/A,,Clear,230,2013-03-07 05:53:00
11:53 PM,46.9,23.0,39,29.69,10.0,SW,21.9,-,N/A,,Clear,230,2013-03-07 06:53:00